Time,TemperatureF,DewpointF,PressureIn,WindDirection,WindDirectionDegrees,WindSpeedMPH,WindSpeedGustMPH,Humidity,HourlyPrecipIn,Conditions,Clouds,dailyrainin,SoftwareType,DateUTC
2013-08-03 00:00:00,67.5,65.4,30.13,NW,315,0.0,0.0,93,0.00,RA,,0.00,WeatherDisplay:10.37,2013-08-03 05:00:00,
2013-08-03 00:05:00,67.5,65.4,30.13,NW,315,0.0,0.0,93,0.00,RA,,0.00,WeatherDisplay:10.37,2013-08-03 05:05:00,
2013-08-03 00:10:00,67.5,65.4,30.13,NW,315,0.0,0.0,93,0.00,CLR,,0.00,WeatherDisplay:10.37,2013-08-03 05:10:00,
2013-08-03 00:20:00,67.5,65.4,30.13,NW,315,0.0,0.0,93,0.00,CLR,,0.00,WeatherDisplay:10.37,2013-08-03 05:20:00,
2013-08-03 00:24:00,67.6,65.5,30.13,NW,315,0.0,0.0,93,0.00,CLR,,0.00,WeatherDisplay:10.37,2013-08-03 05:24:00,
2013-08-03 00:30:00,67.6,65.5,30.13,NW,315,0.0,0.0,93,0.00,CLR,,0.00,WeatherDisplay:10.37,2013-08-03 05:30:00,
2013-08-03 00:34:00,67.6,65.5,30.13,NW,315,0.0,0.0,93,0.00,CLR,,0.00,WeatherDisplay:10.37,2013-08-03 05:34:00,
2013-08-03 00:39:00,67.6,65.5,30.13,NW,315,0.0,0.0,93,0.00,CLR,,0.00,WeatherDisplay:10.37,2013-08-03 05:39:00,
2013-08-03 00:44:00,67.6,65.5,30.13,NW,315,0.0,0.0,93,0.00,CLR,,0.00,WeatherDisplay:10.37,2013-08-03 05:44:00,
2013-08-03 00:49:00,67.6,65.5,30.13,NW,315,0.0,0.0,93,0.00,CLR,,0.00,WeatherDisplay:10.37,2013-08-03 05:49:00,
2013-08-03 00:55:00,67.6,65.5,30.13,NW,315,0.0,0.0,93,0.00,CLR,,0.00,WeatherDisplay:10.37,2013-08-03 05:55:00,
2013-08-03 01:00:00,67.6,65.5,30.13,NW,315,0.0,0.0,93,0.00,CLR,,0.00,WeatherDisplay:10.37,2013-08-03 06:00:00,
2013-08-03 01:10:00,67.5,65.4,30.13,NW,315,0.0,0.0,93,0.00,CLR,,0.00,WeatherDisplay:10.37,2013-08-03 06:10:00,
2013-08-03 01:14:00,67.6,65.5,30.13,NW,315,0.0,0.0,93,0.00,CLR,,0.00,WeatherDisplay:10.37,2013-08-03 06:14:00,
2013-08-03 01:20:00,67.6,65.5,30.13,NW,315,0.0,0.0,93,0.00,CLR,,0.00,WeatherDisplay:10.37,2013-08-03 06:20:00,
2013-08-03 01:25:00,67.6,65.5,30.12,NW,315,0.0,0.0,93,0.00,CLR,,0.00,WeatherDisplay:10.37,2013-08-03 06:25:00,
2013-08-03 01:30:00,67.6,65.5,30.13,NW,315,0.0,0.0,93,0.00,CLR,,0.00,WeatherDisplay:10.37,2013-08-03 06:30:00,
2013-08-03 01:35:00,67.6,65.5,30.13,NW,315,0.0,0.0,93,0.00,CLR,,0.00,WeatherDisplay:10.37,2013-08-03 06:35:00,
2013-08-03 01:40:00,67.6,65.5,30.14,NW,315,0.0,0.0,93,0.00,CLR,,0.00,WeatherDisplay:10.37,2013-08-03 06:40:00,
2013-08-03 01:44:00,67.6,65.9,30.13,NW,315,0.0,0.0,94,0.00,CLR,,0.00,WeatherDisplay:10.37,2013-08-03 06:44:00,
2013-08-03 01:49:00,67.8,66.0,30.14,NW,315,0.0,0.0,94,0.00,CLR,,0.00,WeatherDisplay:10.37,2013-08-03 06:49:00,
2013-08-03 01:55:00,67.8,66.0,30.13,NW,315,0.0,0.0,94,0.00,CLR,,0.00,WeatherDisplay:10.37,2013-08-03 06:55:00,
2013-08-03 02:00:00,67.8,66.0,30.13,NW,315,0.0,0.0,94,0.00,CLR,,0.00,WeatherDisplay:10.37,2013-08-03 07:00:00,
2013-08-03 02:05:00,67.8,66.0,30.13,NW,315,0.0,0.0,94,0.00,CLR,,0.00,WeatherDisplay:10.37,2013-08-03 07:05:00,
2013-08-03 02:10:00,67.8,66.0,30.13,NW,315,0.0,0.0,94,0.00,CLR,,0.00,WeatherDisplay:10.37,2013-08-03 07:10:00,
2013-08-03 02:20:00,67.8,66.0,30.13,NW,315,0.0,0.0,94,0.00,CLR,,0.00,WeatherDisplay:10.37,2013-08-03 07:20:00,
2013-08-03 02:25:00,67.8,66.0,30.13,NW,315,0.0,0.0,94,0.00,CLR,,0.00,WeatherDisplay:10.37,2013-08-03 07:25:00,
2013-08-03 02:30:00,68.0,66.2,30.13,NW,315,0.0,0.0,94,0.00,CLR,,0.00,WeatherDisplay:10.37,2013-08-03 07:30:00,
2013-08-03 02:35:00,67.9,66.1,30.13,NW,315,0.0,0.0,94,0.00,CLR,,0.00,WeatherDisplay:10.37,2013-08-03 07:35:00,
2013-08-03 02:40:00,67.8,66.0,30.13,NW,315,0.0,0.0,94,0.00,CLR,,0.00,WeatherDisplay:10.37,2013-08-03 07:40:00,
2013-08-03 02:45:00,68.0,66.2,30.13,NW,315,0.0,0.0,94,0.00,CLR,,0.00,WeatherDisplay:10.37,2013-08-03 07:45:00,
2013-08-03 02:50:00,68.2,66.4,30.13,NW,315,0.0,0.0,94,0.00,CLR,,0.00,WeatherDisplay:10.37,2013-08-03 07:50:00,
2013-08-03 02:55:00,68.0,66.2,30.13,NW,315,0.0,0.0,94,0.00,CLR,,0.00,WeatherDisplay:10.37,2013-08-03 07:55:00,
2013-08-03 03:05:00,68.0,66.2,30.13,NW,315,0.0,0.0,94,0.00,CLR,,0.00,WeatherDisplay:10.37,2013-08-03 08:05:00,
2013-08-03 03:10:00,67.8,66.0,30.13,NW,315,0.0,0.0,94,0.00,CLR,,0.00,WeatherDisplay:10.37,2013-08-03 08:10:00,
2013-08-03 03:19:00,67.8,66.0,30.13,NW,315,0.0,0.0,94,0.00,CLR,,0.00,WeatherDisplay:10.37,2013-08-03 08:19:00,
2013-08-03 03:25:00,67.6,65.9,30.13,NW,315,0.0,0.0,94,0.00,CLR,,0.00,WeatherDisplay:10.37,2013-08-03 08:25:00,
2013-08-03 03:30:00,67.6,65.9,30.13,NW,315,0.0,0.0,94,0.00,CLR,,0.00,WeatherDisplay:10.37,2013-08-03 08:30:00,
2013-08-03 03:35:00,67.6,65.9,30.13,NW,315,0.0,0.0,94,0.00,CLR,,0.00,WeatherDisplay:10.37,2013-08-03 08:35:00,
2013-08-03 03:40:00,67.6,65.9,30.13,NW,315,0.0,0.0,94,0.00,CLR,,0.00,WeatherDisplay:10.37,2013-08-03 08:40:00,
2013-08-03 03:50:00,67.5,65.7,30.13,NW,315,0.0,0.0,94,0.00,CLR,,0.00,WeatherDisplay:10.37,2013-08-03 08:50:00,
2013-08-03 03:55:00,67.6,65.8,30.14,NW,315,0.0,0.0,94,0.00,CLR,,0.00,WeatherDisplay:10.37,2013-08-03 08:55:00,
2013-08-03 04:00:00,67.6,65.9,30.14,NW,315,0.0,0.0,94,0.00,CLR,,0.00,WeatherDisplay:10.37,2013-08-03 09:00:00,
2013-08-03 04:05:00,67.5,65.7,30.14,NW,315,0.0,0.0,94,0.00,CLR,,0.00,WeatherDisplay:10.37,2013-08-03 09:05:00,
2013-08-03 04:10:00,67.5,65.7,30.14,NW,315,0.0,0.0,94,0.00,CLR,,0.00,WeatherDisplay:10.37,2013-08-03 09:10:00,
2013-08-03 04:15:00,67.5,65.7,30.14,NW,315,0.0,0.0,94,0.00,CLR,,0.00,WeatherDisplay:10.37,2013-08-03 09:15:00,
2013-08-03 04:20:00,67.5,65.7,30.14,NW,315,0.0,0.0,94,0.00,CLR,,0.00,WeatherDisplay:10.37,2013-08-03 09:20:00,
2013-08-03 04:24:00,67.5,65.7,30.14,NW,315,0.0,0.0,94,0.00,CLR,,0.00,WeatherDisplay:10.37,2013-08-03 09:24:00,
2013-08-03 04:30:00,67.5,65.7,30.14,NW,315,0.0,0.0,94,0.00,CLR,,0.00,WeatherDisplay:10.37,2013-08-03 09:30:00,
2013-08-03 04:34:00,67.3,65.5,30.14,NW,315,0.0,0.0,94,0.00,CLR,,0.00,WeatherDisplay:10.37,2013-08-03 09:34:00,
2013-08-03 04:40:00,67.3,65.5,30.14,NW,315,0.0,0.0,94,0.00,CLR,,0.00,WeatherDisplay:10.37,2013-08-03 09:40:00,
2013-08-03 04:45:00,67.3,65.5,30.14,NW,315,0.0,0.0,94,0.00,CLR,,0.00,WeatherDisplay:10.37,2013-08-03 09:45:00,
2013-08-03 04:50:00,67.3,65.5,30.14,NW,315,0.0,0.0,94,0.00,CLR,,0.00,WeatherDisplay:10.37,2013-08-03 09:50:00,
2013-08-03 04:55:00,67.3,65.5,30.14,NW,315,0.0,0.0,94,0.00,CLR,,0.00,WeatherDisplay:10.37,2013-08-03 09:55:00,
2013-08-03 05:00:00,67.1,65.3,30.14,NW,315,0.0,0.0,94,0.00,CLR,,0.00,WeatherDisplay:10.37,2013-08-03 10:00:00,
2013-08-03 05:05:00,67.3,65.5,30.14,NW,315,0.0,0.0,94,0.00,CLR,,0.00,WeatherDisplay:10.37,2013-08-03 10:05:00,
2013-08-03 05:15:00,67.3,65.5,30.14,NW,315,0.0,0.0,94,0.00,CLR,,0.00,WeatherDisplay:10.37,2013-08-03 10:15:00,
2013-08-03 05:20:00,67.1,65.3,30.15,NW,315,0.0,0.0,94,0.00,CLR,,0.00,WeatherDisplay:10.37,2013-08-03 10:20:00,
2013-08-03 05:25:00,67.1,65.6,30.15,NW,315,0.0,0.0,95,0.00,CLR,,0.00,WeatherDisplay:10.37,2013-08-03 10:25:00,
2013-08-03 05:35:00,67.1,65.3,30.15,NW,315,0.0,0.0,94,0.00,CLR,,0.00,WeatherDisplay:10.37,2013-08-03 10:35:00,
2013-08-03 05:40:00,67.1,65.3,30.15,NW,315,0.0,0.0,94,0.00,CLR,,0.00,WeatherDisplay:10.37,2013-08-03 10:40:00,
2013-08-03 05:45:00,67.1,65.6,30.15,NW,315,0.0,0.0,95,0.00,CLR,,0.00,WeatherDisplay:10.37,2013-08-03 10:45:00,
2013-08-03 05:55:00,66.9,65.8,30.15,NW,315,0.0,0.0,96,0.00,CLR,,0.00,WeatherDisplay:10.37,2013-08-03 10:55:00,
2013-08-03 06:00:00,66.9,65.7,30.15,NW,315,0.0,0.0,96,0.00,CLR,,0.00,WeatherDisplay:10.37,2013-08-03 11:00:00,
2013-08-03 06:05:00,67.0,65.9,30.15,NW,315,0.0,0.0,96,0.00,CLR,,0.00,WeatherDisplay:10.37,2013-08-03 11:05:00,
2013-08-03 06:10:00,66.9,65.7,30.15,NW,315,0.0,0.0,96,0.00,CLR,,0.00,WeatherDisplay:10.37,2013-08-03 11:10:00,
2013-08-03 06:15:00,67.1,65.9,30.15,NW,315,0.0,0.0,96,0.00,CLR,,0.00,WeatherDisplay:10.37,2013-08-03 11:15:00,
2013-08-03 06:19:00,67.1,65.9,30.15,NW,315,0.0,0.0,96,0.00,CLR,,0.00,WeatherDisplay:10.37,2013-08-03 11:19:00,
2013-08-03 06:25:00,67.1,65.9,30.16,NW,315,0.0,0.0,96,0.00,CLR,,0.00,WeatherDisplay:10.37,2013-08-03 11:25:00,
2013-08-03 06:35:00,67.3,66.1,30.16,NW,316,0.0,0.0,96,0.00,CLR,,0.00,WeatherDisplay:10.37,2013-08-03 11:35:00,
2013-08-03 06:45:00,67.5,66.3,30.16,NNW,338,0.0,0.0,96,0.00,CLR,,0.00,WeatherDisplay:10.37,2013-08-03 11:45:00,
2013-08-03 06:50:00,67.6,66.5,30.16,NNW,338,0.0,0.0,96,0.00,CLR,,0.00,WeatherDisplay:10.37,2013-08-03 11:50:00,
2013-08-03 06:55:00,67.6,66.5,30.16,NNW,338,0.0,0.0,96,0.00,CLR,,0.00,WeatherDisplay:10.37,2013-08-03 11:55:00,
2013-08-03 07:00:00,67.8,66.6,30.17,NNW,338,0.0,0.0,96,0.00,CLR,,0.00,WeatherDisplay:10.37,2013-08-03 12:00:00,
2013-08-03 07:10:00,68.2,67.0,30.17,NNW,338,0.0,0.0,96,0.00,CLR,,0.00,WeatherDisplay:10.37,2013-08-03 12:10:00,
2013-08-03 07:14:00,68.4,67.2,30.17,NNW,338,0.0,0.0,96,0.00,CLR,,0.00,WeatherDisplay:10.37,2013-08-03 12:14:00,
2013-08-03 07:20:00,68.4,67.2,30.17,NNW,343,0.0,0.0,96,0.00,CLR,,0.00,WeatherDisplay:10.37,2013-08-03 12:20:00,
2013-08-03 07:25:00,68.5,67.4,30.17,North,5,0.0,0.0,96,0.00,CLR,,0.00,WeatherDisplay:10.37,2013-08-03 12:25:00,
2013-08-03 07:29:00,68.5,67.4,30.17,North,354,0.0,0.0,96,0.00,CLR,,0.00,WeatherDisplay:10.37,2013-08-03 12:29:00,
2013-08-03 07:35:00,68.9,67.7,30.17,North,353,0.0,0.0,96,0.00,CLR,,0.00,WeatherDisplay:10.37,2013-08-03 12:35:00,
2013-08-03 07:40:00,69.1,67.9,30.17,North,11,0.0,0.0,96,0.00,CLR,,0.00,WeatherDisplay:10.37,2013-08-03 12:40:00,
2013-08-03 07:45:00,69.3,68.1,30.17,North,7,0.0,0.0,96,0.00,CLR,,0.00,WeatherDisplay:10.37,2013-08-03 12:45:00,
2013-08-03 07:50:00,69.3,68.1,30.17,NNE,18,0.0,0.0,96,0.00,CLR,,0.00,WeatherDisplay:10.37,2013-08-03 12:50:00,
2013-08-03 07:55:00,69.4,68.2,30.17,NNE,25,0.0,0.0,96,0.00,CLR,,0.00,WeatherDisplay:10.37,2013-08-03 12:55:00,
2013-08-03 08:04:00,70.5,69.3,30.17,NNE,22,0.0,0.0,96,0.00,CLR,,0.00,WeatherDisplay:10.37,2013-08-03 13:04:00,
2013-08-03 08:10:00,70.5,69.3,30.17,NNE,22,0.0,0.0,96,0.00,CLR,,0.00,WeatherDisplay:10.37,2013-08-03 13:10:00,
2013-08-03 08:20:00,70.7,68.6,30.17,NE,46,0.0,0.0,93,0.00,CLR,,0.00,WeatherDisplay:10.37,2013-08-03 13:20:00,
2013-08-03 08:24:00,71.0,68.6,30.18,NE,35,0.0,0.0,92,0.00,CLR,,0.00,WeatherDisplay:10.37,2013-08-03 13:24:00,
2013-08-03 08:30:00,71.9,69.5,30.18,North,9,0.0,0.0,92,0.00,CLR,,0.00,WeatherDisplay:10.37,2013-08-03 13:30:00,
2013-08-03 08:40:00,73.6,70.1,30.18,North,11,0.0,1.0,89,0.00,CLR,,0.00,WeatherDisplay:10.37,2013-08-03 13:40:00,
2013-08-03 08:45:00,73.8,69.6,30.18,NNE,22,0.0,1.0,87,0.00,CLR,,0.00,WeatherDisplay:10.37,2013-08-03 13:45:00,
2013-08-03 08:49:00,73.8,69.0,30.19,North,10,0.0,3.0,85,0.00,CLR,,0.00,WeatherDisplay:10.37,2013-08-03 13:49:00,
2013-08-03 08:55:00,74.1,68.6,30.19,NNE,16,0.0,0.0,83,0.00,CLR,,0.00,WeatherDisplay:10.37,2013-08-03 13:55:00,
2013-08-03 09:05:00,74.1,68.6,30.19,NNE,22,0.0,0.0,83,0.00,CLR,,0.00,WeatherDisplay:10.37,2013-08-03 14:05:00,
2013-08-03 09:10:00,75.2,67.1,30.20,NE,35,0.0,0.0,76,0.00,CLR,,0.00,WeatherDisplay:10.37,2013-08-03 14:10:00,
2013-08-03 09:15:00,75.9,67.8,30.20,NE,45,0.0,0.0,76,0.00,CLR,,0.00,WeatherDisplay:10.37,2013-08-03 14:15:00,
2013-08-03 09:20:00,75.9,67.8,30.20,NE,45,0.0,0.0,76,0.00,CLR,,0.00,WeatherDisplay:10.37,2013-08-03 14:20:00,
2013-08-03 09:25:00,75.9,65.8,30.20,NNE,28,0.0,2.0,71,0.00,CLR,,0.00,WeatherDisplay:10.37,2013-08-03 14:25:00,
2013-08-03 09:30:00,75.9,65.8,30.20,North,5,0.0,2.0,71,0.00,CLR,,0.00,WeatherDisplay:10.37,2013-08-03 14:30:00,
2013-08-03 09:35:00,75.9,65.8,30.20,North,0,0.0,2.0,71,0.00,CLR,,0.00,WeatherDisplay:10.37,2013-08-03 14:35:00,
2013-08-03 09:40:00,76.5,65.9,30.20,North,0,2.0,2.0,70,0.00,CLR,,0.00,WeatherDisplay:10.37,2013-08-03 14:40:00,
2013-08-03 09:44:00,76.5,65.9,30.20,North,0,2.0,0.0,70,0.00,CLR,,0.00,WeatherDisplay:10.37,2013-08-03 14:44:00,
2013-08-03 09:50:00,76.5,65.9,30.20,North,8,0.0,0.0,70,0.00,CLR,,0.00,WeatherDisplay:10.37,2013-08-03 14:50:00,
2013-08-03 09:55:00,76.5,65.1,30.19,NE,52,0.0,0.0,68,0.00,CLR,,0.00,WeatherDisplay:10.37,2013-08-03 14:55:00,
2013-08-03 09:59:00,76.5,65.1,30.19,NNE,17,0.0,0.0,68,0.00,CLR,,0.00,WeatherDisplay:10.37,2013-08-03 14:59:00,
2013-08-03 10:05:00,76.5,65.1,30.19,NNW,338,0.0,0.0,68,0.00,CLR,,0.00,WeatherDisplay:10.37,2013-08-03 15:05:00,
2013-08-03 10:10:00,76.5,65.1,30.19,NNW,338,0.0,0.0,68,0.00,CLR,,0.00,WeatherDisplay:10.37,2013-08-03 15:10:00,
2013-08-03 10:15:00,76.5,65.1,30.19,NNW,338,0.0,0.0,68,0.00,CLR,,0.00,WeatherDisplay:10.37,2013-08-03 15:15:00,
2013-08-03 10:19:00,76.5,65.1,30.19,NNW,338,0.0,0.0,68,0.00,CLR,,0.00,WeatherDisplay:10.37,2013-08-03 15:19:00,
2013-08-03 10:25:00,78.3,63.7,30.20,NNW,338,0.0,0.0,61,0.00,CLR,,0.00,WeatherDisplay:10.37,2013-08-03 15:25:00,
2013-08-03 10:30:00,77.7,62.7,30.20,NNW,338,0.0,0.0,60,0.00,CLR,,0.00,WeatherDisplay:10.37,2013-08-03 15:30:00,
2013-08-03 10:34:00,77.9,62.9,30.20,NNW,345,0.0,0.0,60,0.00,CLR,,0.00,WeatherDisplay:10.37,2013-08-03 15:34:00,
2013-08-03 10:40:00,77.9,62.9,30.21,North,356,0.0,0.0,60,0.00,CLR,,0.00,WeatherDisplay:10.37,2013-08-03 15:40:00,
2013-08-03 10:45:00,77.9,62.9,30.21,North,0,0.0,0.0,60,0.00,CLR,,0.00,WeatherDisplay:10.37,2013-08-03 15:45:00,
2013-08-03 10:50:00,79.8,64.6,30.21,North,6,0.0,0.0,60,0.00,CLR,,0.00,WeatherDisplay:10.37,2013-08-03 15:50:00,
2013-08-03 11:00:00,80.7,64.1,30.21,NE,45,2.0,0.0,57,0.00,CLR,,0.00,WeatherDisplay:10.37,2013-08-03 16:00:00,
2013-08-03 11:05:00,80.8,64.1,30.21,NE,35,0.0,1.0,57,0.00,CLR,,0.00,WeatherDisplay:10.37,2013-08-03 16:05:00,
2013-08-03 11:10:00,80.8,64.1,30.21,North,3,0.0,1.0,57,0.00,CLR,,0.00,WeatherDisplay:10.37,2013-08-03 16:10:00,
2013-08-03 11:14:00,82.5,65.7,30.22,NNW,342,1.0,3.0,57,0.00,CLR,,0.00,WeatherDisplay:10.37,2013-08-03 16:14:00,
2013-08-03 11:20:00,82.2,62.8,30.22,NNE,13,0.0,3.0,52,0.00,CLR,,0.00,WeatherDisplay:10.37,2013-08-03 16:20:00,
2013-08-03 11:25:00,82.8,62.8,30.22,North,8,0.0,2.0,51,0.00,CLR,,0.00,WeatherDisplay:10.37,2013-08-03 16:25:00,
2013-08-03 11:30:00,81.5,61.1,30.22,NNW,333,1.0,2.0,50,0.00,CLR,,0.00,WeatherDisplay:10.37,2013-08-03 16:30:00,
2013-08-03 11:35:00,80.4,61.2,30.22,NNW,340,0.0,0.0,52,0.00,CLR,,0.00,WeatherDisplay:10.37,2013-08-03 16:35:00,
2013-08-03 11:39:00,80.4,61.2,30.22,NNW,340,0.0,2.0,52,0.00,CLR,,0.00,WeatherDisplay:10.37,2013-08-03 16:39:00,
2013-08-03 11:50:00,80.6,60.8,30.22,North,351,2.0,2.0,51,0.00,CLR,,0.00,WeatherDisplay:10.37,2013-08-03 16:50:00,
2013-08-03 11:54:00,81.3,60.3,30.22,NNW,347,0.0,5.0,49,0.00,CLR,,0.00,WeatherDisplay:10.37,2013-08-03 16:54:00,
2013-08-03 12:00:00,81.3,60.9,30.22,North,351,1.0,6.0,50,0.00,CLR,,0.00,WeatherDisplay:10.37,2013-08-03 17:00:00,
2013-08-03 12:10:00,81.9,60.8,30.23,NNW,346,1.0,5.0,49,0.00,CLR,,0.00,WeatherDisplay:10.37,2013-08-03 17:10:00,
2013-08-03 12:15:00,83.1,61.4,30.22,NNW,327,0.0,5.0,48,0.00,CLR,,0.00,WeatherDisplay:10.37,2013-08-03 17:15:00,
2013-08-03 12:19:00,82.6,59.7,30.22,NNW,347,3.0,5.0,46,0.00,CLR,,0.00,WeatherDisplay:10.37,2013-08-03 17:19:00,
2013-08-03 12:25:00,82.0,59.2,30.22,NNW,348,2.0,3.0,46,0.00,CLR,,0.00,WeatherDisplay:10.37,2013-08-03 17:25:00,
2013-08-03 12:30:00,82.4,59.5,30.22,NNW,348,1.0,6.0,46,0.00,CLR,,0.00,WeatherDisplay:10.37,2013-08-03 17:30:00,
2013-08-03 12:34:00,82.6,60.4,30.22,NNW,334,1.0,6.0,47,0.00,CLR,,0.00,WeatherDisplay:10.37,2013-08-03 17:34:00,
2013-08-03 12:40:00,82.9,58.8,30.23,NNW,330,2.0,2.0,44,0.00,CLR,,0.00,WeatherDisplay:10.37,2013-08-03 17:40:00,
2013-08-03 12:45:00,82.9,58.1,30.22,NNW,338,0.0,2.0,43,0.00,CLR,,0.00,WeatherDisplay:10.37,2013-08-03 17:45:00,
2013-08-03 12:49:00,83.8,59.0,30.23,NNW,331,2.0,2.0,43,0.00,CLR,,0.00,WeatherDisplay:10.37,2013-08-03 17:49:00,
2013-08-03 12:55:00,83.8,58.3,30.23,NNW,331,0.0,2.0,42,0.00,CLR,,0.00,WeatherDisplay:10.37,2013-08-03 17:55:00,
2013-08-03 13:00:00,83.8,55.5,30.23,NNE,16,2.0,5.0,38,0.00,CLR,,0.00,WeatherDisplay:10.37,2013-08-03 18:00:00,
2013-08-03 13:05:00,83.8,54.0,30.23,North,351,0.0,5.0,36,0.00,CLR,,0.00,WeatherDisplay:10.37,2013-08-03 18:05:00,
2013-08-03 13:10:00,88.4,58.0,30.23,WNW,292,0.0,0.0,36,0.00,CLR,,0.00,WeatherDisplay:10.37,2013-08-03 18:10:00,
2013-08-03 13:15:00,89.1,57.8,30.23,WNW,293,0.0,0.0,35,0.00,CLR,,0.00,WeatherDisplay:10.37,2013-08-03 18:15:00,
2013-08-03 13:20:00,88.9,55.2,30.24,NNW,348,0.0,1.0,32,0.00,CLR,,0.00,WeatherDisplay:10.37,2013-08-03 18:20:00,
2013-08-03 13:25:00,89.1,54.5,30.23,NNW,343,1.0,1.0,31,0.00,CLR,,0.00,WeatherDisplay:10.37,2013-08-03 18:25:00,
2013-08-03 13:30:00,89.1,54.6,30.24,NNW,344,1.0,1.0,31,0.00,CLR,,0.00,WeatherDisplay:10.37,2013-08-03 18:30:00,
2013-08-03 13:35:00,90.1,55.4,30.24,NNW,341,1.0,1.0,31,0.00,CLR,,0.00,WeatherDisplay:10.37,2013-08-03 18:35:00,
2013-08-03 13:40:00,89.8,54.2,30.24,NW,310,0.0,1.0,30,0.00,CLR,,0.00,WeatherDisplay:10.37,2013-08-03 18:40:00,
2013-08-03 13:45:00,89.8,55.1,30.24,NW,314,0.0,0.0,31,0.00,CLR,,0.00,WeatherDisplay:10.37,2013-08-03 18:45:00,
2013-08-03 13:50:00,89.8,54.2,30.24,North,8,0.0,0.0,30,0.00,CLR,,0.00,WeatherDisplay:10.37,2013-08-03 18:50:00,
2013-08-03 13:55:00,90.1,53.6,30.24,NE,45,0.0,0.0,29,0.00,CLR,,0.00,WeatherDisplay:10.37,2013-08-03 18:55:00,
2013-08-03 14:00:00,90.1,52.6,30.24,North,10,0.0,0.0,28,0.00,CLR,,0.00,WeatherDisplay:10.37,2013-08-03 19:00:00,
2013-08-03 14:05:00,89.8,50.3,30.24,NNW,344,5.0,5.0,26,0.00,CLR,,0.00,WeatherDisplay:10.37,2013-08-03 19:05:00,
2013-08-03 14:09:00,88.6,48.3,30.24,North,5,2.0,2.0,25,0.00,CLR,,0.00,WeatherDisplay:10.37,2013-08-03 19:09:00,
2013-08-03 14:14:00,88.5,49.3,30.24,North,355,2.0,4.0,26,0.00,CLR,,0.00,WeatherDisplay:10.37,2013-08-03 19:14:00,
2013-08-03 14:20:00,88.0,49.8,30.24,North,8,1.0,4.0,27,0.00,CLR,,0.00,WeatherDisplay:10.37,2013-08-03 19:20:00,
2013-08-03 14:30:00,88.0,50.8,30.24,North,349,2.0,2.0,28,0.00,CLR,,0.00,WeatherDisplay:10.37,2013-08-03 19:30:00,
2013-08-03 14:34:00,88.0,51.7,30.24,NNW,331,0.0,2.0,29,0.00,CLR,,0.00,WeatherDisplay:10.37,2013-08-03 19:34:00,
2013-08-03 14:40:00,88.5,50.3,30.24,NNW,343,2.0,3.0,27,0.00,CLR,,0.00,WeatherDisplay:10.37,2013-08-03 19:40:00,
2013-08-03 14:45:00,88.5,51.3,30.24,North,351,2.0,5.0,28,0.00,CLR,,0.00,WeatherDisplay:10.37,2013-08-03 19:45:00,
2013-08-03 14:49:00,88.5,49.3,30.24,NNE,21,7.0,7.0,26,0.00,CLR,,0.00,WeatherDisplay:10.37,2013-08-03 19:49:00,
2013-08-03 14:55:00,88.5,50.3,30.24,North,8,0.0,7.0,27,0.00,CLR,,0.00,WeatherDisplay:10.37,2013-08-03 19:55:00,
2013-08-03 15:00:00,88.5,50.3,30.24,North,353,0.0,1.0,27,0.00,CLR,,0.00,WeatherDisplay:10.37,2013-08-03 20:00:00,
2013-08-03 15:05:00,88.7,52.4,30.23,NNW,335,5.0,5.0,29,0.00,CLR,,0.00,WeatherDisplay:10.37,2013-08-03 20:05:00,
2013-08-03 15:10:00,89.1,50.7,30.24,North,6,2.0,5.0,27,0.00,CLR,,0.00,WeatherDisplay:10.37,2013-08-03 20:10:00,
2013-08-03 15:15:00,89.1,50.7,30.24,North,4,5.0,5.0,27,0.00,CLR,,0.00,WeatherDisplay:10.37,2013-08-03 20:15:00,
2013-08-03 15:20:00,89.1,50.7,30.24,North,360,5.0,5.0,27,0.00,CLR,,0.00,WeatherDisplay:10.37,2013-08-03 20:20:00,
2013-08-03 15:25:00,89.1,50.7,30.24,North,355,3.0,3.0,27,0.00,CLR,,0.00,WeatherDisplay:10.37,2013-08-03 20:25:00,
2013-08-03 15:29:00,89.5,47.9,30.24,North,9,1.0,6.0,24,0.00,CLR,,0.00,WeatherDisplay:10.37,2013-08-03 20:29:00,
2013-08-03 15:35:00,89.1,47.6,30.24,NNE,31,0.0,1.0,24,0.00,CLR,,0.00,WeatherDisplay:10.37,2013-08-03 20:35:00,
2013-08-03 15:40:00,89.1,47.6,30.24,North,358,0.0,0.0,24,0.00,CLR,,0.00,WeatherDisplay:10.37,2013-08-03 20:40:00,
2013-08-03 15:45:00,89.6,48.0,30.24,NNE,19,2.0,2.0,24,0.00,CLR,,0.00,WeatherDisplay:10.37,2013-08-03 20:45:00,
2013-08-03 15:49:00,89.2,48.7,30.24,NE,41,2.0,5.0,25,0.00,CLR,,0.00,WeatherDisplay:10.37,2013-08-03 20:49:00,
2013-08-03 15:55:00,89.8,48.2,30.24,NE,41,0.0,5.0,24,0.00,CLR,,0.00,WeatherDisplay:10.37,2013-08-03 20:55:00,
2013-08-03 16:00:00,90.5,47.6,30.24,NNE,22,0.0,0.0,23,0.00,CLR,,0.00,WeatherDisplay:10.37,2013-08-03 21:00:00,
2013-08-03 16:09:00,88.0,48.8,30.24,NNE,24,0.0,6.0,26,0.00,CLR,,0.00,WeatherDisplay:10.37,2013-08-03 21:09:00,
2013-08-03 16:14:00,88.2,48.9,30.24,NE,45,0.0,0.0,26,0.00,CLR,,0.00,WeatherDisplay:10.37,2013-08-03 21:14:00,
2013-08-03 16:20:00,88.5,48.2,30.25,NNE,28,0.0,1.0,25,0.00,CLR,,0.00,WeatherDisplay:10.37,2013-08-03 21:20:00,
2013-08-03 16:25:00,86.9,46.8,30.24,NNW,328,0.0,0.0,25,0.00,CLR,,0.00,WeatherDisplay:10.37,2013-08-03 21:25:00,
2013-08-03 16:30:00,84.9,48.2,30.24,NE,52,0.0,0.0,28,0.00,CLR,,0.00,WeatherDisplay:10.37,2013-08-03 21:30:00,
2013-08-03 16:35:00,85.1,51.1,30.24,NE,47,0.0,0.0,31,0.00,CLR,,0.00,WeatherDisplay:10.37,2013-08-03 21:35:00,
2013-08-03 16:40:00,84.2,48.5,30.24,ENE,60,0.0,0.0,29,0.00,CLR,,0.00,WeatherDisplay:10.37,2013-08-03 21:40:00,
2013-08-03 16:50:00,85.7,50.7,30.24,NNE,22,0.0,5.0,30,0.00,CLR,,0.00,WeatherDisplay:10.37,2013-08-03 21:50:00,
2013-08-03 17:00:00,82.4,47.0,30.25,North,5,0.0,1.0,29,0.00,CLR,,0.00,WeatherDisplay:10.37,2013-08-03 22:00:00,
2013-08-03 17:05:00,80.7,47.3,30.24,NNE,24,1.0,1.0,31,0.00,CLR,,0.00,WeatherDisplay:10.37,2013-08-03 22:05:00,
2013-08-03 17:10:00,79.7,48.0,30.24,NE,39,2.0,2.0,33,0.00,CLR,,0.00,WeatherDisplay:10.37,2013-08-03 22:10:00,
2013-08-03 17:20:00,76.6,48.4,30.24,NNE,19,3.0,5.0,37,0.00,CLR,,0.00,WeatherDisplay:10.37,2013-08-03 22:20:00,
2013-08-03 17:30:00,77.0,49.4,30.24,North,355,0.0,0.0,38,0.00,CLR,,0.00,WeatherDisplay:10.37,2013-08-03 22:30:00,
2013-08-03 17:35:00,76.7,49.2,30.24,North,1,1.0,2.0,38,0.00,CLR,,0.00,WeatherDisplay:10.37,2013-08-03 22:35:00,
2013-08-03 17:40:00,76.1,48.6,30.24,ENE,70,0.0,2.0,38,0.00,CLR,,0.00,WeatherDisplay:10.37,2013-08-03 22:40:00,
2013-08-03 17:45:00,75.8,49.1,30.24,NE,49,0.0,0.0,39,0.00,CLR,,0.00,WeatherDisplay:10.37,2013-08-03 22:45:00,
2013-08-03 17:50:00,75.6,49.5,30.24,NNE,12,0.0,0.0,40,0.00,CLR,,0.00,WeatherDisplay:10.37,2013-08-03 22:50:00,
2013-08-03 17:55:00,75.4,50.0,30.24,North,2,0.0,0.0,41,0.00,CLR,,0.00,WeatherDisplay:10.37,2013-08-03 22:55:00,
2013-08-03 17:59:00,75.0,49.7,30.24,NE,55,0.0,1.0,41,0.00,CLR,,0.00,WeatherDisplay:10.37,2013-08-03 22:59:00,
2013-08-03 18:04:00,74.7,49.4,30.24,NE,42,0.0,0.0,41,0.00,CLR,,0.00,WeatherDisplay:10.37,2013-08-03 23:04:00,
2013-08-03 18:10:00,73.9,48.7,30.24,NE,44,1.0,1.0,41,0.00,CLR,,0.00,WeatherDisplay:10.37,2013-08-03 23:10:00,
2013-08-03 18:15:00,73.4,48.9,30.23,NNE,20,0.0,1.0,42,0.00,CLR,,0.00,WeatherDisplay:10.37,2013-08-03 23:15:00,
2013-08-03 18:20:00,73.8,50.5,30.24,North,0,0.0,0.0,44,0.00,CLR,,0.00,WeatherDisplay:10.37,2013-08-03 23:20:00,
2013-08-03 18:25:00,73.8,50.5,30.23,NNE,12,0.0,0.0,44,0.00,CLR,,0.00,WeatherDisplay:10.37,2013-08-03 23:25:00,
2013-08-03 18:29:00,73.3,49.5,30.24,NE,36,0.0,0.0,43,0.00,CLR,,0.00,WeatherDisplay:10.37,2013-08-03 23:29:00,
2013-08-03 18:35:00,73.0,49.8,30.24,NNE,21,0.0,0.0,44,0.00,CLR,,0.00,WeatherDisplay:10.37,2013-08-03 23:35:00,
2013-08-03 18:40:00,72.5,49.3,30.24,North,0,0.0,0.0,44,0.00,CLR,,0.00,WeatherDisplay:10.37,2013-08-03 23:40:00,
2013-08-03 18:50:00,71.4,49.6,30.24,North,0,0.0,0.0,46,0.00,CLR,,0.00,WeatherDisplay:10.37,2013-08-03 23:50:00,
2013-08-03 19:00:00,70.4,49.7,30.24,North,0,0.0,0.0,48,0.00,CLR,,0.00,WeatherDisplay:10.37,2013-08-04 00:00:00,
2013-08-03 19:05:00,70.0,49.9,30.25,North,0,0.0,0.0,49,0.00,CLR,,0.00,WeatherDisplay:10.37,2013-08-04 00:05:00,
2013-08-03 19:10:00,69.6,49.6,30.24,North,0,0.0,0.0,49,0.00,CLR,,0.00,WeatherDisplay:10.37,2013-08-04 00:10:00,
2013-08-03 19:15:00,69.4,50.0,30.24,North,0,0.0,0.0,50,0.00,CLR,,0.00,WeatherDisplay:10.37,2013-08-04 00:15:00,
2013-08-03 19:25:00,68.7,50.8,30.24,North,0,0.0,0.0,53,0.00,CLR,,0.00,WeatherDisplay:10.37,2013-08-04 00:25:00,
2013-08-03 19:30:00,68.2,51.4,30.24,North,0,0.0,0.0,55,0.00,CLR,,0.00,WeatherDisplay:10.37,2013-08-04 00:30:00,
2013-08-03 19:40:00,67.0,50.8,30.24,North,0,0.0,0.0,56,0.00,CLR,,0.00,WeatherDisplay:10.37,2013-08-04 00:40:00,
2013-08-03 19:45:00,66.6,50.9,30.24,North,0,0.0,0.0,57,0.00,CLR,,0.00,WeatherDisplay:10.37,2013-08-04 00:45:00,
2013-08-03 19:55:00,65.2,50.6,30.25,North,0,0.0,0.0,59,0.00,CLR,,0.00,WeatherDisplay:10.37,2013-08-04 00:55:00,
2013-08-03 20:04:00,63.9,50.6,30.25,North,0,0.0,0.0,62,0.00,CLR,,0.00,WeatherDisplay:10.37,2013-08-04 01:04:00,
2013-08-03 20:15:00,62.4,49.7,30.25,North,0,0.0,0.0,63,0.00,CLR,,0.00,WeatherDisplay:10.37,2013-08-04 01:15:00,
2013-08-03 20:20:00,61.9,49.6,30.25,North,0,0.0,0.0,64,0.00,CLR,,0.00,WeatherDisplay:10.37,2013-08-04 01:20:00,
2013-08-03 20:25:00,61.4,50.3,30.26,North,0,0.0,0.0,67,0.00,CLR,,0.00,WeatherDisplay:10.37,2013-08-04 01:25:00,
2013-08-03 20:30:00,61.0,50.7,30.25,North,0,0.0,0.0,69,0.00,CLR,,0.00,WeatherDisplay:10.37,2013-08-04 01:30:00,
2013-08-03 20:40:00,60.3,50.8,30.26,North,0,0.0,0.0,71,0.00,CLR,,0.00,WeatherDisplay:10.37,2013-08-04 01:40:00,
2013-08-03 20:50:00,59.7,51.0,30.26,North,0,0.0,0.0,73,0.00,CLR,,0.00,WeatherDisplay:10.37,2013-08-04 01:50:00,
2013-08-03 20:55:00,59.4,51.1,30.25,North,0,0.0,0.0,74,0.00,CLR,,0.00,WeatherDisplay:10.37,2013-08-04 01:55:00,
2013-08-03 20:59:00,59.0,51.1,30.25,North,0,0.0,0.0,75,0.00,CLR,,0.00,WeatherDisplay:10.37,2013-08-04 01:59:00,
2013-08-03 21:05:00,59.0,51.4,30.25,North,0,0.0,0.0,76,0.00,CLR,,0.00,WeatherDisplay:10.37,2013-08-04 02:05:00,
2013-08-03 21:10:00,58.6,51.1,30.26,North,0,0.0,0.0,76,0.00,CLR,,0.00,WeatherDisplay:10.37,2013-08-04 02:10:00,
2013-08-03 21:15:00,58.6,51.4,30.26,North,0,0.0,0.0,77,0.00,CLR,,0.00,WeatherDisplay:10.37,2013-08-04 02:15:00,
2013-08-03 21:20:00,58.6,51.8,30.26,North,0,0.0,0.0,78,0.00,CLR,,0.00,WeatherDisplay:10.37,2013-08-04 02:20:00,
2013-08-03 21:25:00,58.5,52.0,30.26,North,0,0.0,0.0,79,0.00,CLR,,0.00,WeatherDisplay:10.37,2013-08-04 02:25:00,
2013-08-03 21:35:00,58.1,52.0,30.27,North,0,0.0,0.0,80,0.00,CLR,,0.00,WeatherDisplay:10.37,2013-08-04 02:35:00,
2013-08-03 21:40:00,58.1,52.0,30.26,North,0,0.0,0.0,80,0.00,CLR,,0.00,WeatherDisplay:10.37,2013-08-04 02:40:00,
2013-08-03 21:45:00,57.9,52.1,30.27,North,0,0.0,0.0,81,0.00,CLR,,0.00,WeatherDisplay:10.37,2013-08-04 02:45:00,
2013-08-03 21:50:00,57.9,52.4,30.27,North,0,0.0,0.0,82,0.00,CLR,,0.00,WeatherDisplay:10.37,2013-08-04 02:50:00,
2013-08-03 21:55:00,57.6,52.1,30.27,North,0,0.0,0.0,82,0.00,CLR,,0.00,WeatherDisplay:10.37,2013-08-04 02:55:00,
2013-08-03 22:00:00,57.4,51.9,30.27,North,0,0.0,0.0,82,0.00,CLR,,0.00,WeatherDisplay:10.37,2013-08-04 03:00:00,
2013-08-03 22:05:00,57.4,51.9,30.27,North,0,0.0,0.0,82,0.00,CLR,,0.00,WeatherDisplay:10.37,2013-08-04 03:05:00,
2013-08-03 22:10:00,57.2,51.8,30.27,North,0,0.0,0.0,82,0.00,CLR,,0.00,WeatherDisplay:10.37,2013-08-04 03:10:00,
2013-08-03 22:15:00,57.0,51.6,30.27,North,0,0.0,0.0,82,0.00,CLR,,0.00,WeatherDisplay:10.37,2013-08-04 03:15:00,
2013-08-03 22:20:00,56.8,51.4,30.27,North,0,0.0,0.0,82,0.00,CLR,,0.00,WeatherDisplay:10.37,2013-08-04 03:20:00,
2013-08-03 22:25:00,56.7,51.2,30.27,North,0,0.0,0.0,82,0.00,CLR,,0.00,WeatherDisplay:10.37,2013-08-04 03:25:00,
2013-08-03 22:30:00,56.7,51.6,30.28,North,0,0.0,0.0,83,0.00,CLR,,0.00,WeatherDisplay:10.37,2013-08-04 03:30:00,
2013-08-03 22:35:00,56.6,51.5,30.27,North,0,0.0,0.0,83,0.00,CLR,,0.00,WeatherDisplay:10.37,2013-08-04 03:35:00,
2013-08-03 22:45:00,56.3,51.2,30.27,North,0,0.0,0.0,83,0.00,CLR,,0.00,WeatherDisplay:10.37,2013-08-04 03:45:00,
2013-08-03 22:50:00,56.3,51.5,30.27,North,0,0.0,0.0,84,0.00,CLR,,0.00,WeatherDisplay:10.37,2013-08-04 03:50:00,
2013-08-03 22:55:00,56.3,51.5,30.27,North,0,0.0,0.0,84,0.00,CLR,,0.00,WeatherDisplay:10.37,2013-08-04 03:55:00,
2013-08-03 23:00:00,56.3,51.5,30.27,North,0,0.0,0.0,84,0.00,CLR,,0.00,WeatherDisplay:10.37,2013-08-04 04:00:00,
2013-08-03 23:05:00,56.4,51.6,30.28,North,0,0.0,0.0,84,0.00,CLR,,0.00,WeatherDisplay:10.37,2013-08-04 04:05:00,
2013-08-03 23:10:00,56.7,52.2,30.28,North,0,0.0,0.0,85,0.00,CLR,,0.00,WeatherDisplay:10.37,2013-08-04 04:10:00,
2013-08-03 23:14:00,56.5,52.0,30.27,North,0,0.0,0.0,85,0.00,CLR,,0.00,WeatherDisplay:10.37,2013-08-04 04:14:00,
2013-08-03 23:19:00,56.4,51.9,30.28,North,0,0.0,0.0,85,0.00,CLR,,0.00,WeatherDisplay:10.37,2013-08-04 04:19:00,
2013-08-03 23:25:00,56.3,51.8,30.28,North,0,0.0,0.0,85,0.00,CLR,,0.00,WeatherDisplay:10.37,2013-08-04 04:25:00,
2013-08-03 23:30:00,56.1,51.7,30.28,North,0,0.0,0.0,85,0.00,CLR,,0.00,WeatherDisplay:10.37,2013-08-04 04:30:00,
2013-08-03 23:35:00,56.1,52.0,30.28,North,0,0.0,0.0,86,0.00,CLR,,0.00,WeatherDisplay:10.37,2013-08-04 04:35:00,
2013-08-03 23:45:00,56.3,52.2,30.28,North,0,0.0,0.0,86,0.00,CLR,,0.00,WeatherDisplay:10.37,2013-08-04 04:45:00,
2013-08-03 23:55:00,56.1,52.3,30.28,North,0,0.0,0.0,87,0.00,CLR,,0.00,WeatherDisplay:10.37,2013-08-04 04:55:00,